Cloud_Cover
4 11 12 2 2 14 56 99 100 100 100 60 100 84 100 100 6 5 1 83 98 100 68 15 5 6 5 32 33 32 6 23 5 25 99 37 63 46 7 5 5 40 76 5 48
66 5 12 6 2 4 6 80 99 100 100 100 100 100 100 100 100 16 0 0 0 68 99 100 95 23 54 30 21 82 96 72 44 72 13 24 32 5 5 5 5 5 12 7 5
52 44 96 5 4 1 10 43 98 100 100 100 100 100 100 100 100 44 4 0 0 0 1 5 92 100 100 100 86 23 15 6 18 53 16 8 5 2 5 47 5 0 5 3 0
5 92 61 5 10 5 5 37 100 86 100 100 100 100 100 100 100 99 20 18 0 0 0 0 0 0 1 6 99 94 26 72 10 5 5 5 5 1 4 22 6 2 0 1 0
5 5 5 25 5 5 5 99 100 100 22 100 100 100 100 100 100 96 72 99 2 0 0 0 0 0 0 1 2 3 67 56 89 5 0 0 0 5 5 4 0 0 2 2 0
56 0 0 0 0 5 10 100 100 100 100 80 100 100 100 100 100 100 100 100 92 6 5 0 2 0 0 0 0 0 0 0 0 3 5 0 0 0 0 0 0 0 0 0 0
100 41 5 5 5 3 96 98 100 100 100 100 100 100 100 100 100 100 100 100 100 100 77 4 5 36 2 0 0 0 0 0 0 0 0 0 0 0 0 0 0 0 0 0 0
100 79 5 5 5 6 100 100 100 100 100 100 100 100 100 100 100 100 100 100 100 100 100 100 50 5 70 39 11 1 0 0 0 0 0 0 0 0 0 0 0 0 0 0 0
93 94 87 100 5 43 100 100 100 100 100 100 100 100 100 100 100 100 100 100 100 100 100 100 100 80 76 63 79 8 0 2 0 2 0 2 3 2 0 0 0 0 0 0 0
100 100 100 96 4 45 100 100 100 100 80 100 100 100 100 100 100 100 100 100 100 100 100 100 100 100 100 93 38 59 28 5 4 4 23 7 4 0 0 1 0 0 0 0 0
94 100 60 5 4 85 100 100 100 100 98 100 100 100 100 100 100 100 100 100 100 100 100 100 100 100 87 42 100 100 97 100 5 17 5 5 5 0 0 0 7 100 100 97 97
5 9 75 2 88 100 100 100 100 100 100 100 100 100 100 100 100 100 100 100 100 100 100 100 98 83 96 42 26 11 96 82 85 5 14 5 4 0 2 40 100 100 97 98 57
4 8 4 82 100 88 100 100 100 100 100 100 100 100 100 100 100 100 80 100 100 100 100 100 100 92 100 100 37 26 45 18 27 36 5 10 29 0 2 54 22 29 100 96 81
100 100 100 97 100 100 100 100 100 100 100 100 100 100 100 100 100 100 71 73 100 100 100 100 100 100 100 100 99 24 5 78 88 100 97 94 60 5 2 5 5 6 100 100 100
95 100 100 100 100 100 100 100 100 100 100 100 100 100 100 100 100 96 75 59 97 100 83 100 100 100 100 64 5 5 14 20 78 100 100 97 100 0 5 5 6 100 91 100 100
100 100 100 100 100 100 100 100 100 100 100 100 100 100 100 100 100 100 100 100 89 25 41 62 79 60 6 5 6 9 36 79 98 100 96 85 69 74 44 44 70 83 100 100 100
25 97 95 100 99 100 100 97 76 100 100 100 100 100 100 100 100 100 100 77 5 5 7 5 5 5 11 73 93 74 100 74 88 99 97 99 98 100 100 100 100 100 100 100 100
5 12 14 9 97 100 100 100 100 100 95 71 84 100 100 99 82 100 23 6 6 12 94 48 5 21 9 6 87 100 100 96 92 100 100 100 100 100 100 100 100 100 100 100 100
4 2 5 100 79 74 88 100 100 100 99 91 64 5 88 8 9 5 47 5 5 5 60 82 33 48 10 80 100 100 100 100 100 100 100 95 100 100 100 100 100 100 100 100 100
0 12 2 4 99 84 100 93 94 12 30 85 100 100 100 98 16 5 5 22 70 65 43 93 97 90 74 72 67 99 78 97 99 100 100 99 100 100 100 100 100 100 100 100 100
0 0 0 0 2 100 47 86 82 95 74 70 62 47 50 53 16 11 70 47 85 31 79 79 93 49 100 100 100 100 100 26 100 100 100 100 95 100 100 100 100 100 100 100 100
0 0 0 0 3 36 99 63 5 5 5 6 65 81 6 62 100 100 13 22 48 88 100 75 90 100 100 100 100 5 15 100 100 100 65 100 94 100 100 100 100 100 100 100 100
0 0 0 0 9 23 4 5 5 5 5 5 5 5 5 98 97 100 98 66 94 93 99 100 100 100 100 47 100 100 93 100 100 100 89 100 74 98 100 100 100 100 100 100 100
0 0 0 0 0 0 3 0 4 5 5 5 5 5 14 5 6 58 18 60 5 5 5 5 5 5 31 77 38 7 5 5 32 63 91 33 65 100 72 100 98 80 80 91 86
3 0 2 0 0 0 0 3 2 5 5 1 0 0 1 5 4 4 0 0 0 0 2 4 1 4 2 0 1 1 2 4 4 6 5 37 5 5 5 5 5 18 17 33 44
0 0 0 0 0 0 0 0 0 0 0 0 0 0 0 0 0 0 0 0 0 0 0 0 0 1 0 0 0 0 0 0 0 0 0 2 2 0 0 0 0 2 2 0 0
22 0 0 0 0 0 0 0 0 0 0 0 0 0 0 0 0 0 0 0 0 0 0 0 0 5 3 0 0 0 0 0 0 0 0 0 0 0 0 0 0 0 0 0 0